RADUGA 20 [-]

Last updated on Jan. 18, 2020, 4:38 a.m. UTC

1 17611U 87028A   20017.05408976 -.00000131  00000-0  00000-0 0  9996
2 17611  16.3327 347.0181 0024967 107.6256 243.1755  0.95962242115822
UTC
Height (km)
Latitude
Longitude
Inclination
Orbital Period
UTC large
Height (km)
Speed (km/s)
/
Latitude / Longitude
Inclination (degrees)
Orbital Period (minutes)
Azimuth
Elevation
Range (km)
Doppler Factor
iOS Compass Heading
iOS Angle

Next 30 passes for location: Hong Kong

Rise time Rise Azimuth (degrees) Set time Set Azimuth (degrees) Duration Max altitude (degrees)

No matching passes for this satellites